Location: Mannheim
(49.4880°N, 8.4650°E)
Time: 03:42:15
(UTC+02:00)

ISS - Pass Details

Date: 24 September 2018
Orbit: 403 x 408 km, 51.6° (Epoch: 26 September)

Event Time Altitude Azimuth Distance (km) Brightness Sun altitude
Rises 20:16:16 0° 216° (SW) 2,324 0.4 -9.9°
Reaches altitude 10° 20:18:32 10° 203° (SSW) 1,466 -0.8 -10.3°
Maximum altitude 20:21:21 26° 145° (SE) 835 -2.6 -10.7°
Enters shadow 20:22:59 18° 101° (E) 1,091 -2.3 -11.0°
